TimeCDT,TemperatureF,Dew PointF,Humidity,Sea Level PressureIn,VisibilityMPH,Wind Direction,Wind SpeedMPH,Gust SpeedMPH,PrecipitationIn,Events,Conditions,WindDirDegrees,DateUTC
12:15 AM,32.0,30.2,93,30.16,10.0,NW,18.4,29.9,N/A,,Overcast,310,2012-10-05 05:15:00
12:35 AM,32.0,32.0,100,30.16,10.0,NW,16.1,29.9,N/A,,Overcast,320,2012-10-05 05:35:00
12:55 AM,32.0,32.0,100,30.15,8.0,NW,20.7,29.9,N/A,,Mostly Cloudy,310,2012-10-05 05:55:00
1:15 AM,32.0,30.2,93,30.15,10.0,NW,18.4,29.9,N/A,,Overcast,310,2012-10-05 06:15:00
1:35 AM,32.0,30.2,93,30.15,10.0,NW,23.0,33.4,N/A,,Mostly Cloudy,320,2012-10-05 06:35:00
1:55 AM,32.0,32.0,100,30.15,10.0,NW,21.9,34.5,N/A,,Overcast,310,2012-10-05 06:55:00
2:15 AM,32.0,32.0,100,30.15,10.0,NW,17.3,29.9,N/A,,Overcast,320,2012-10-05 07:15:00
2:35 AM,32.0,30.2,93,30.15,9.0,NW,19.6,29.9,N/A,,Overcast,310,2012-10-05 07:35:00
2:55 AM,32.0,32.0,100,30.15,5.0,NW,18.4,28.8,0.01,,Overcast,320,2012-10-05 07:55:00
3:15 AM,32.0,32.0,100,30.15,5.0,NW,19.6,26.5,0.01,,Overcast,320,2012-10-05 08:15:00
3:35 AM,32.0,32.0,100,30.14,5.0,NW,18.4,28.8,0.02,,Overcast,310,2012-10-05 08:35:00
3:55 AM,32.0,32.0,100,30.14,4.0,NW,19.6,27.6,0.03,,Overcast,320,2012-10-05 08:55:00
4:15 AM,32.0,32.0,100,30.14,3.0,NW,19.6,27.6,0.01,Snow,Light Snow,320,2012-10-05 09:15:00
4:35 AM,32.0,32.0,100,30.14,3.0,NW,20.7,28.8,0.03,Snow,Light Snow,320,2012-10-05 09:35:00
4:55 AM,32.0,32.0,100,30.14,3.0,NW,16.1,28.8,0.06,Snow,Light Snow,310,2012-10-05 09:55:00
5:15 AM,32.0,32.0,100,30.14,3.0,NW,17.3,26.5,0.02,Snow,Light Snow,320,2012-10-05 10:15:00
5:35 AM,32.0,32.0,100,30.14,2.5,NW,17.3,25.3,0.07,Snow,Light Snow,310,2012-10-05 10:35:00
5:55 AM,32.0,32.0,100,30.14,2.0,NW,16.1,28.8,0.13,Snow,Light Snow,320,2012-10-05 10:55:00
6:15 AM,32.0,32.0,100,30.14,2.5,NW,19.6,25.3,0.02,Snow,Light Snow,320,2012-10-05 11:15:00
6:35 AM,32.0,32.0,100,30.14,3.0,NW,16.1,25.3,0.05,Snow,Light Snow,320,2012-10-05 11:35:00
6:55 AM,32.0,32.0,100,30.14,4.0,NW,19.6,28.8,0.06,,Scattered Clouds,320,2012-10-05 11:55:00
7:15 AM,32.0,32.0,100,30.15,5.0,NW,17.3,26.5,N/A,,Mostly Cloudy,320,2012-10-05 12:15:00
7:35 AM,32.0,32.0,100,30.15,3.0,NW,17.3,28.8,0.01,,Mostly Cloudy,320,2012-10-05 12:35:00
7:55 AM,32.0,32.0,100,30.16,3.0,NW,17.3,29.9,0.03,,Scattered Clouds,320,2012-10-05 12:55:00
8:15 AM,32.0,32.0,100,30.16,1.2,NW,19.6,28.8,0.02,,Scattered Clouds,320,2012-10-05 13:15:00
8:35 AM,32.0,32.0,100,30.17,1.0,NW,16.1,21.9,0.05,Snow,Light Snow,320,2012-10-05 13:35:00
8:55 AM,32.0,32.0,100,30.17,1.8,NW,16.1,26.5,0.08,,Scattered Clouds,320,2012-10-05 13:55:00
9:15 AM,32.0,32.0,100,30.17,1.0,NNW,16.1,26.5,0.03,Snow,Light Snow,330,2012-10-05 14:15:00
9:35 AM,32.0,32.0,100,30.18,0.8,NW,17.3,23.0,0.07,Snow,Light Snow,320,2012-10-05 14:35:00
9:55 AM,32.0,32.0,100,30.18,1.5,NW,17.3,25.3,0.10,,Scattered Clouds,320,2012-10-05 14:55:00
10:15 AM,32.0,32.0,100,30.19,1.0,NNW,13.8,21.9,0.03,Snow,Light Snow,330,2012-10-05 15:15:00
10:35 AM,32.0,32.0,100,30.20,1.0,NNW,19.6,29.9,0.07,Snow,Light Snow,330,2012-10-05 15:35:00
10:55 AM,32.0,32.0,100,30.20,1.2,NNW,15.0,24.2,0.10,Snow,Light Snow,330,2012-10-05 15:55:00
11:35 AM,32.0,32.0,100,30.21,0.8,NNW,17.3,24.2,0.09,Snow,Light Snow,330,2012-10-05 16:35:00
11:55 AM,32.0,32.0,100,30.22,0.8,NNW,18.4,24.2,0.19,Snow,Light Snow,330,2012-10-05 16:55:00
12:15 PM,32.0,32.0,100,30.22,0.5,NNW,15.0,23.0,0.09,Snow,Snow,330,2012-10-05 17:15:00
12:35 PM,32.0,32.0,100,30.22,0.8,NNW,15.0,23.0,0.22,,Mostly Cloudy,330,2012-10-05 17:35:00
12:55 PM,32.0,32.0,100,30.22,1.8,NNW,18.4,24.2,0.25,Snow,Light Snow,330,2012-10-05 17:55:00
1:35 PM,32.0,32.0,100,30.23,6.0,NNW,13.8,20.7,N/A,,Mostly Cloudy,330,2012-10-05 18:35:00
1:55 PM,32.0,32.0,100,30.23,3.0,NNW,12.7,20.7,0.01,,Mostly Cloudy,330,2012-10-05 18:55:00
2:15 PM,32.0,32.0,100,30.23,5.0,NNW,15.0,23.0,N/A,,Mostly Cloudy,330,2012-10-05 19:15:00
2:35 PM,33.8,33.8,100,30.23,7.0,NNW,15.0,21.9,N/A,,Mostly Cloudy,330,2012-10-05 19:35:00
2:55 PM,33.8,33.8,100,30.24,3.0,NNW,16.1,21.9,0.01,Snow,Light Snow,330,2012-10-05 19:55:00
3:15 PM,33.8,33.8,100,30.24,4.0,NNW,12.7,23.0,N/A,,Scattered Clouds,330,2012-10-05 20:15:00
3:35 PM,33.8,33.8,100,30.24,4.0,NNW,15.0,20.7,0.01,,Scattered Clouds,330,2012-10-05 20:35:00
3:55 PM,33.8,33.8,100,30.24,1.8,NNW,12.7,-,0.02,Snow,Light Snow,340,2012-10-05 20:55:00
4:15 PM,33.8,33.8,100,30.25,3.0,NNW,16.1,24.2,0.01,Snow,Light Snow,340,2012-10-05 21:15:00
4:35 PM,33.8,33.8,100,30.25,4.0,NNW,13.8,21.9,0.02,,Clear,340,2012-10-05 21:35:00
4:55 PM,33.8,33.8,100,30.26,5.0,NNW,15.0,19.6,0.03,,Partly Cloudy,340,2012-10-05 21:55:00
5:15 PM,33.8,33.8,100,30.26,7.0,NNW,15.0,21.9,N/A,Snow,Light Snow,340,2012-10-05 22:15:00
5:35 PM,33.8,33.8,100,30.27,9.0,NNW,16.1,23.0,N/A,,Mostly Cloudy,340,2012-10-05 22:35:00
5:55 PM,33.8,33.8,100,30.27,10.0,North,12.7,20.7,N/A,,Mostly Cloudy,350,2012-10-05 22:55:00
6:15 PM,33.8,33.8,100,30.28,10.0,North,15.0,-,N/A,,Overcast,360,2012-10-05 23:15:00
6:35 PM,33.8,33.8,100,30.29,10.0,North,12.7,19.6,N/A,,Overcast,360,2012-10-05 23:35:00
6:55 PM,33.8,33.8,100,30.29,10.0,North,9.2,-,N/A,,Mostly Cloudy,350,2012-10-05 23:55:00
7:15 PM,33.8,33.8,100,30.30,10.0,NNW,8.1,-,N/A,,Mostly Cloudy,340,2012-10-06 00:15:00
7:35 PM,33.8,33.8,100,30.30,10.0,NNW,6.9,-,N/A,,Overcast,330,2012-10-06 00:35:00
7:55 PM,33.8,33.8,100,30.31,10.0,NNW,6.9,-,N/A,,Overcast,330,2012-10-06 00:55:00
8:15 PM,33.8,33.8,100,30.31,10.0,NNW,6.9,-,N/A,,Mostly Cloudy,330,2012-10-06 01:15:00
8:35 PM,35.6,35.6,100,30.31,10.0,NNW,10.4,-,N/A,,Overcast,340,2012-10-06 01:35:00
8:55 PM,35.6,35.6,100,30.32,10.0,North,11.5,-,N/A,,Overcast,350,2012-10-06 01:55:00
9:15 PM,35.6,35.6,100,30.32,10.0,NNE,12.7,-,N/A,,Overcast,20,2012-10-06 02:15:00
9:35 PM,33.8,32.0,93,30.33,10.0,NNE,12.7,19.6,N/A,,Mostly Cloudy,20,2012-10-06 02:35:00
9:55 PM,33.8,32.0,93,30.33,10.0,North,11.5,-,N/A,,Overcast,360,2012-10-06 02:55:00
10:35 PM,33.8,33.8,100,30.33,10.0,NNW,8.1,-,N/A,,Overcast,340,2012-10-06 03:35:00
10:55 PM,33.8,33.8,100,30.33,10.0,NNW,6.9,-,N/A,,Overcast,340,2012-10-06 03:55:00
11:15 PM,33.8,33.8,100,30.33,10.0,NNW,9.2,-,N/A,,Overcast,340,2012-10-06 04:15:00
11:35 PM,33.8,33.8,100,30.33,10.0,NNW,9.2,-,N/A,,Overcast,340,2012-10-06 04:35:00
11:55 PM,33.8,33.8,100,30.34,10.0,NNW,9.2,-,N/A,,Overcast,330,2012-10-06 04:55:00